Mount Holly, NJ

5:40 PM EST on December 07, 2019 (GMT -0500)
South Jersey Regional

Weather History for KVAY - September, 2019

Change the Weather History Date:

Thursday, September 19, 2019

  Actual Average (KPNE) Record (KPNE)
Temperature  
Mean Temperature 58 °F -  
Max Temperature 71 °F 74 °F 86 °F (2005)
Min Temperature 45 °F 55 °F 48 °F (2004)
Degree Days  
Heating Degree Days 7    
Growing Degree Days 8 (Base 50)    
Moisture  
Dew Point 47 °F    
Average Humidity 72    
Maximum Humidity 93    
Minimum Humidity 42    
Precipitation  
Precipitation 0.00 in - - ()
Sea Level Pressure  
Sea Level Pressure 30.32 in    
Wind  
Wind Speed 1 mph (NNE)    
Max Wind Speed 7 mph    
Max Gust Speed -    
Visibility 10 miles    
Events      
Averages and records for this station are not official NWS values.
T = Trace of Precipitation, MM = Missing Value Source: NWS Daily Summary

Daily Weather History Graph

Daily Weather History Graph

Search for Another Location

Airport or City:

Astronomy

Sep. 19, 2019 Rise Set
Actual Time 6:43 AM EDT 7:01 PM EDT
Civil Twilight 6:16 AM EDT 7:28 PM EDT
Nautical Twilight 5:45 AM EDT 8:00 PM EDT
Astronomical Twilight 5:12 AM EDT 8:32 PM EDT
Moon 10:09 PM EDT (9/19) 11:44 AM EDT (9/19)
Length of Visible Light 13h 12m
Length of Day
12h 17m
Waning Gibbous, 74% of the Moon is Illuminated
Sep 19
Waning Gibbous
Sep 21
Last Quarter
Sep 28
New
Oct 5
First Quarter
Oct 13
Full

Hourly Weather History & Observations

Time (EDT) Temp. Dew Point Humidity Pressure Visibility Wind Dir Wind Speed Gust Speed Precip Events Conditions
12:52 AM 50.0 °F 46.4 °F 87% 30.30 in 2.5 mi Calm Calm - N/A   Mist
12:54 AM 50.0 °F 46.9 °F 89% 30.30 in 4.0 mi Calm Calm - N/A   Mist
1:54 AM 50.0 °F 46.9 °F 89% 30.30 in 10.0 mi Calm Calm - N/A   Unknown
2:54 AM 50.0 °F 46.0 °F 86% 30.30 in 10.0 mi Calm Calm - N/A   Clear
3:54 AM 48.0 °F 45.0 °F 89% 30.31 in 10.0 mi Calm Calm - N/A   Clear
4:54 AM 48.0 °F 44.1 °F 86% 30.31 in 10.0 mi Calm Calm - N/A   Unknown
5:54 AM 46.0 °F 44.1 °F 93% 30.32 in 10.0 mi Calm Calm - N/A   Unknown
6:54 AM 45.0 °F 42.1 °F 90% 30.33 in 10.0 mi Calm Calm - N/A   Unknown
7:54 AM 51.1 °F 46.9 °F 86% 30.35 in 10.0 mi Calm Calm - N/A   Clear
8:54 AM 57.0 °F 48.0 °F 72% 30.36 in 10.0 mi NNE 6.9 mph - N/A   Clear
9:54 AM 61.0 °F 48.0 °F 62% 30.37 in 10.0 mi Variable 4.6 mph - N/A   Clear
10:54 AM 62.1 °F 48.0 °F 60% 30.36 in 10.0 mi Variable 5.8 mph - N/A   Clear
11:54 AM 64.0 °F 48.0 °F 56% 30.36 in 10.0 mi NE 3.5 mph - N/A   Partly Cloudy
12:54 PM 66.9 °F 48.0 °F 51% 30.34 in 10.0 mi NNW 6.9 mph - N/A   Clear
1:54 PM 69.1 °F 48.0 °F 47% 30.32 in 10.0 mi North 5.8 mph - N/A   Clear
2:54 PM 70.0 °F 46.9 °F 44% 30.31 in 10.0 mi Variable 3.5 mph - N/A   Clear
3:54 PM 70.0 °F 46.9 °F 44% 30.30 in 10.0 mi NE 3.5 mph - N/A   Clear
4:54 PM 71.1 °F 46.9 °F 42% 30.29 in 10.0 mi NNW 4.6 mph - N/A   Clear
5:54 PM 70.0 °F 46.9 °F 44% 30.30 in 10.0 mi Variable 3.5 mph - N/A   Clear
6:54 PM 63.0 °F 51.1 °F 65% 30.30 in 10.0 mi Calm Calm - N/A   Clear
7:54 PM 57.0 °F 51.1 °F 81% 30.30 in 10.0 mi SE 4.6 mph - N/A   Clear
8:54 PM 57.0 °F 50.0 °F 77% 30.30 in 10.0 mi Calm Calm - N/A   Clear
9:54 PM 54.0 °F 48.9 °F 83% 30.30 in 10.0 mi Calm Calm - N/A   Clear
10:54 PM 52.0 °F 48.9 °F 89% 30.29 in 10.0 mi Calm Calm - N/A   Unknown
11:54 PM 52.0 °F 48.9 °F 89% 30.29 in 10.0 mi Calm Calm - N/A   Clear